When you browse on this site, cookies collect data to enhance your experience and personalize the content and advertising you see.
Visit our Privacy Policy to learn more. By continuing to use the site, you agree to this use of cookies and data.
  • In Portugal
  • List of Countries
  • For 7 days
  • Water Temperature
  • Weather Map
  • Weather Widgets
  • user-avatar
    Login

    Hourly Weather Hobart

    Today, 25 May, Monday

    Time Temperature Precipitation Wind Pressure Humidity
    00:00 +5°C° 0 mm 2 mps 756 mmHg 87%
    01:00 +5°C° 0 mm 1 mps 756 mmHg 88%
    02:00 +5°C° 0 mm 1 mps 756 mmHg 88%
    03:00 +5°C° 0 mm 1 mps 756 mmHg 88%
    04:00 +5°C° 0 mm 1 mps 756 mmHg 89%
    05:00 +5°C° 0 mm 1 mps 756 mmHg 89%
    06:00 +4°C° 0 mm 1 mps 756 mmHg 89%
    07:00 +4°C° 0 mm 1 mps 757 mmHg 90%
    08:00 +6°C° 0 mm 1 mps 757 mmHg 84%
    09:00 +7°C° 0 mm 1 mps 757 mmHg 78%
    10:00 +8°C° 0 mm 0 mps 757 mmHg 72%
    11:00 +10°C° 0 mm 1 mps 757 mmHg 68%
    12:00 +11°C° 0 mm 1 mps 756 mmHg 65%
    13:00 +12°C° 0 mm 1 mps 756 mmHg 61%
    14:00 +12°C° 0 mm 1 mps 756 mmHg 64%
    15:00 +11°C° 0 mm 1 mps 756 mmHg 67%
    16:00 +10°C° 0 mm 1 mps 756 mmHg 71%
    17:00 +9°C° 0 mm 1 mps 756 mmHg 77%
    18:00 +8°C° 0 mm 1 mps 757 mmHg 83%
    19:00 +6°C° 0 mm 1 mps 757 mmHg 89%
    20:00 +6°C° 0 mm 1 mps 757 mmHg 90%
    21:00 +6°C° 0 mm 1 mps 757 mmHg 90%
    22:00 +4°C° 0 mm 2 mps 758 mmHg 91%
    23:00 +4°C° 0 mm 2 mps 758 mmHg 92%

    Tomorrow, 26 May, Tuesday

    Time Temperature Precipitation Wind Pressure Humidity
    00:00 +5°C° 0 mm 1 mps 757 mmHg 92%
    01:00 +5°C° 0 mm 1 mps 757 mmHg 93%
    02:00 +3°C° 0 mm 2 mps 757 mmHg 93%
    03:00 +3°C° 0 mm 2 mps 757 mmHg 93%
    04:00 +3°C° 0 mm 2 mps 757 mmHg 93%
    05:00 +3°C° 0 mm 2 mps 757 mmHg 93%
    06:00 +3°C° 0 mm 2 mps 757 mmHg 93%
    07:00 +3°C° 0 mm 2 mps 757 mmHg 93%
    08:00 +4°C° 0 mm 2 mps 757 mmHg 85%
    09:00 +6°C° 0 mm 2 mps 757 mmHg 77%
    10:00 +8°C° 0 mm 2 mps 757 mmHg 69%
    11:00 +10°C° 0 mm 2 mps 756 mmHg 64%
    12:00 +12°C° 0 mm 2 mps 755 mmHg 59%
    13:00 +14°C° 0 mm 2 mps 755 mmHg 54%
    14:00 +13°C° 0 mm 2 mps 755 mmHg 58%
    15:00 +12°C° 0 mm 2 mps 754 mmHg 63%
    16:00 +12°C° 0 mm 2 mps 754 mmHg 67%
    17:00 +9°C° 0 mm 3 mps 754 mmHg 75%
    18:00 +8°C° 0 mm 3 mps 754 mmHg 82%
    19:00 +5°C° 0 mm 3 mps 754 mmHg 89%
    20:00 +5°C° 0 mm 3 mps 754 mmHg 90%
    21:00 +5°C° 0 mm 3 mps 754 mmHg 92%
    22:00 +4°C° 0 mm 3 mps 754 mmHg 93%
    23:00 +4°C° 0 mm 3 mps 754 mmHg 92%

    Day after tomorrow, 27 May, Wednesday

    Time Temperature Precipitation Wind Pressure Humidity
    00:00 +4°C° 0 mm 3 mps 753 mmHg 91%
    01:00 +4°C° 0 mm 3 mps 753 mmHg 91%
    02:00 +4°C° 0 mm 3 mps 752 mmHg 91%
    03:00 +3°C° 0 mm 3 mps 752 mmHg 91%
    04:00 +3°C° 0 mm 3 mps 752 mmHg 92%
    05:00 +3°C° 0 mm 3 mps 752 mmHg 92%
    06:00 +4°C° 0 mm 2 mps 752 mmHg 92%
    07:00 +5°C° 0 mm 2 mps 751 mmHg 92%
    08:00 +7°C° 0 mm 2 mps 751 mmHg 85%
    09:00 +9°C° 0 mm 2 mps 751 mmHg 78%
    10:00 +12°C° 0 mm 2 mps 751 mmHg 71%
    11:00 +13°C° 0 mm 2 mps 751 mmHg 66%
    12:00 +15°C° 0 mm 2 mps 750 mmHg 61%
    13:00 +16°C° 0 mm 2 mps 750 mmHg 56%
    14:00 +15°C° 0 mm 2 mps 750 mmHg 59%
    15:00 +15°C° 0 mm 2 mps 750 mmHg 63%
    16:00 +14°C° 0 mm 1 mps 749 mmHg 66%
    17:00 +13°C° 0 mm 1 mps 750 mmHg 71%
    18:00 +10°C° 0 mm 2 mps 750 mmHg 77%
    19:00 +9°C° 0 mm 2 mps 750 mmHg 83%
    20:00 +8°C° 0 mm 2 mps 750 mmHg 83%
    21:00 +8°C° 0 mm 2 mps 750 mmHg 84%
    22:00 +8°C° 0 mm 2 mps 750 mmHg 84%
    23:00 +7°C° 0 mm 2 mps 750 mmHg 86%

    28 May, Thursday

    Time Temperature Precipitation Wind Pressure Humidity
    00:00 +7°C° 0 mm 2 mps 750 mmHg 87%
    01:00 +7°C° 0 mm 2 mps 750 mmHg 89%
    02:00 +7°C° 0 mm 2 mps 750 mmHg 88%
    03:00 +7°C° 0 mm 2 mps 749 mmHg 87%
    04:00 +7°C° 0 mm 2 mps 749 mmHg 87%
    05:00 +7°C° 0 mm 2 mps 749 mmHg 87%
    06:00 +7°C° 0 mm 2 mps 750 mmHg 87%
    07:00 +6°C° 0 mm 2 mps 750 mmHg 88%
    08:00 +8°C° 0 mm 2 mps 750 mmHg 82%
    09:00 +9°C° 0 mm 2 mps 750 mmHg 75%
    10:00 +12°C° 0 mm 2 mps 750 mmHg 69%
    11:00 +13°C° 0 mm 2 mps 750 mmHg 68%
    12:00 +14°C° 0 mm 1 mps 750 mmHg 66%
    13:00 +15°C° 0 mm 1 mps 750 mmHg 65%
    14:00 +14°C° 0 mm 1 mps 750 mmHg 67%
    15:00 +14°C° 0 mm 1 mps 750 mmHg 70%
    16:00 +13°C° 0 mm 1 mps 750 mmHg 72%
    17:00 +12°C° 0 mm 1 mps 751 mmHg 78%
    18:00 +10°C° 0 mm 1 mps 751 mmHg 83%
    19:00 +8°C° 0 mm 2 mps 751 mmHg 88%
    20:00 +7°C° 0 mm 2 mps 752 mmHg 89%
    21:00 +7°C° 0 mm 2 mps 752 mmHg 89%
    22:00 +7°C° 0 mm 2 mps 752 mmHg 90%
    23:00 +7°C° 0 mm 2 mps 752 mmHg 90%

    29 May, Friday

    Time Temperature Precipitation Wind Pressure Humidity
    00:00 +6°C° 0 mm 2 mps 752 mmHg 90%
    01:00 +6°C° 0 mm 2 mps 753 mmHg 90%
    02:00 +6°C° 0 mm 2 mps 752 mmHg 90%
    03:00 +6°C° 0 mm 2 mps 752 mmHg 90%
    04:00 +6°C° 0 mm 2 mps 752 mmHg 89%
    05:00 +6°C° 0 mm 2 mps 752 mmHg 90%
    06:00 +6°C° 0 mm 2 mps 752 mmHg 90%
    07:00 +5°C° 0 mm 3 mps 753 mmHg 90%
    08:00 +8°C° 0 mm 3 mps 753 mmHg 84%
    09:00 +9°C° 0 mm 3 mps 753 mmHg 77%
    10:00 +11°C° 0 mm 3 mps 753 mmHg 71%
    11:00 +12°C° 0 mm 3 mps 752 mmHg 67%
    12:00 +14°C° 0 mm 3 mps 752 mmHg 62%
    13:00 +16°C° 0 mm 3 mps 751 mmHg 58%
    14:00 +15°C° 0 mm 2 mps 751 mmHg 61%
    15:00 +14°C° 0 mm 2 mps 751 mmHg 65%
    16:00 +13°C° 0 mm 2 mps 750 mmHg 68%
    17:00 +12°C° 0 mm 2 mps 751 mmHg 74%
    18:00 +10°C° 0 mm 2 mps 751 mmHg 79%
    19:00 +8°C° 0 mm 3 mps 751 mmHg 85%
    20:00 +8°C° 0 mm 3 mps 751 mmHg 86%
    21:00 +7°C° 0 mm 3 mps 751 mmHg 88%
    22:00 +7°C° 0 mm 3 mps 750 mmHg 89%
    23:00 +7°C° 0 mm 3 mps 750 mmHg 89%

    30 May, Saturday

    Time Temperature Precipitation Wind Pressure Humidity
    00:00 +7°C° 0 mm 3 mps 750 mmHg 89%
    01:00 +5°C° 0 mm 3 mps 750 mmHg 89%
    02:00 +5°C° 0 mm 3 mps 749 mmHg 88%
    03:00 +5°C° 0 mm 3 mps 749 mmHg 88%
    04:00 +5°C° 0 mm 3 mps 748 mmHg 87%
    05:00 +5°C° 0 mm 3 mps 748 mmHg 88%
    06:00 +5°C° 0 mm 3 mps 748 mmHg 89%
    07:00 +5°C° 0 mm 3 mps 748 mmHg 89%
    08:00 +8°C° 0 mm 3 mps 748 mmHg 81%
    09:00 +9°C° 0 mm 3 mps 748 mmHg 73%
    10:00 +11°C° 0 mm 3 mps 748 mmHg 65%
    11:00 +13°C° 0 mm 3 mps 748 mmHg 59%
    12:00 +15°C° 0 mm 4 mps 747 mmHg 53%
    13:00 +17°C° 0 mm 4 mps 747 mmHg 48%
    14:00 +15°C° 0 mm 4 mps 747 mmHg 53%
    15:00 +15°C° 0 mm 4 mps 746 mmHg 58%
    16:00 +14°C° 0 mm 4 mps 746 mmHg 63%
    17:00 +12°C° 0 mm 4 mps 746 mmHg 68%
    18:00 +11°C° 0 mm 4 mps 746 mmHg 73%
    19:00 +10°C° 0 mm 4 mps 746 mmHg 78%
    20:00 +10°C° 0 mm 4 mps 746 mmHg 79%
    21:00 +10°C° 0 mm 4 mps 745 mmHg 79%
    22:00 +8°C° 0 mm 4 mps 745 mmHg 80%
    23:00 +10°C° 0 mm 4 mps 745 mmHg 78%
    Show more